Weather History for Chipley, FL

Change the Weather History Date:

Friday, August 2, 2013

  Actual Average (KMAI) Record (KMAI)
Temperature  
Mean Temperature 88 °F 82 °F  
Max Temperature 95 °F 91 °F 99 °F (1999)
Min Temperature 80 °F 73 °F 68 °F (2002)
Degree Days  
Heating Degree Days 0    
Month to date heating degree days  
Since 1 June heating degree days  
Since 1 July heating degree days  
Cooling Degree Days 22    
Month to date cooling degree days  
Year to date cooling degree days  
Since 1 June cooling degree days  
Growing Degree Days 38 (Base 50)    
Moisture  
Dew Point 72 °F    
Average Humidity 60    
Maximum Humidity 79    
Minimum Humidity 44    
Precipitation  
Precipitation 0.00 in 0.22 in 1.49 in (1999)
Month to date precipitation 0.42  
Year to date precipitation 33.32  
Sea Level Pressure  
Sea Level Pressure 29.98 in    
Wind  
Wind Speed 3 mph (SE)    
Max Wind Speed 10 mph    
Max Gust Speed -    
Visibility 10 miles    
Events      
T = Trace of Precipitation, MM = Missing Value Source: NWS Daily Summary

Daily Weather History Graph

Daily Weather History Graph

Search for Another Location

Airport:

Trip Planner

Search our weather history database for the weather conditions in past years. The results will help you decide how hot, cold, wet, or windy it might be!

Date:

Astronomy

Aug. 02, 2013 Rise Set
Actual Time 6:00 AM CDT 7:36 PM CDT
Civil Twilight 5:34 AM CDT 8:02 PM CDT
Nautical Twilight 5:03 AM CDT 8:33 PM CDT
Astronomical Twilight 4:30 AM CDT 9:06 PM CDT
Moon 2:24 AM CDT (8/2) 4:30 PM CDT (8/2)
Length of Visible Light 14h 27m
Length of Day
13h 35m
Waning Crescent, 15% of the Moon is Illuminated
Aug 2
Waning Crescent
Aug 6
New
Aug 14
First Quarter
Aug 20
Full
Aug 28
Last Quarter

Hourly Weather History & Observations

Time (CDT) Temp. Heat Index Dew Point Humidity Pressure Visibility Wind Dir Wind Speed Gust Speed Precip Events Conditions
12:15 AM 84.2 °F 89.6 °F 71.6 °F 66% 29.98 in 10.0 mi East 4.6 mph - N/A   Mostly Cloudy
12:35 AM 84.2 °F 89.6 °F 71.6 °F 66% 29.97 in 10.0 mi Calm Calm - N/A   Partly Cloudy
12:55 AM 84.2 °F 89.6 °F 71.6 °F 66% 29.96 in 10.0 mi Calm Calm - N/A   Mostly Cloudy
1:15 AM 82.4 °F 88.2 °F 73.4 °F 74% 29.96 in 10.0 mi WSW 3.5 mph - N/A   Scattered Clouds
1:35 AM 82.4 °F 88.2 °F 73.4 °F 74% 29.96 in 10.0 mi Calm Calm - N/A   Clear
1:55 AM 82.4 °F 88.2 °F 73.4 °F 74% 29.95 in 10.0 mi Calm Calm - N/A   Clear
2:15 AM 84.2 °F 90.9 °F 73.4 °F 70% 29.94 in 10.0 mi Calm Calm - N/A   Clear
2:35 AM 82.4 °F 88.2 °F 73.4 °F 74% 29.94 in 10.0 mi Calm Calm - N/A   Clear
2:55 AM 82.4 °F 88.2 °F 73.4 °F 74% 29.94 in 10.0 mi South 4.6 mph - N/A   Clear
3:15 AM 84.2 °F 90.9 °F 73.4 °F 70% 29.94 in 10.0 mi South 4.6 mph - N/A   Clear
3:35 AM 84.2 °F 90.9 °F 73.4 °F 70% 29.94 in 10.0 mi South 3.5 mph - N/A   Clear
3:55 AM 82.4 °F 87.2 °F 71.6 °F 70% 29.94 in 10.0 mi Calm Calm - N/A   Clear
4:15 AM 80.6 °F 84.6 °F 71.6 °F 74% 29.94 in 10.0 mi Calm Calm - N/A   Clear
4:35 AM 82.4 °F 87.2 °F 71.6 °F 70% 29.95 in 10.0 mi Calm Calm - N/A   Clear
4:55 AM 80.6 °F 84.6 °F 71.6 °F 74% 29.96 in 10.0 mi Calm Calm - N/A   Clear
5:15 AM 80.6 °F 85.4 °F 73.4 °F 79% 29.96 in 10.0 mi Calm Calm - N/A   Clear
5:35 AM 82.4 °F 87.2 °F 71.6 °F 70% 29.97 in 10.0 mi Calm Calm - N/A   Scattered Clouds
5:55 AM 80.6 °F 85.4 °F 73.4 °F 79% 29.97 in 10.0 mi Calm Calm - N/A   Overcast
6:15 AM 82.4 °F 88.2 °F 73.4 °F 74% 29.97 in 10.0 mi South 3.5 mph - N/A   Mostly Cloudy
6:35 AM 82.4 °F 87.2 °F 71.6 °F 70% 29.98 in 10.0 mi Calm Calm - N/A   Partly Cloudy
6:55 AM 82.4 °F 88.2 °F 73.4 °F 74% 29.97 in 10.0 mi Calm Calm - N/A   Clear
7:15 AM 82.4 °F 88.2 °F 73.4 °F 74% 29.97 in 10.0 mi Calm Calm - N/A   Clear
7:35 AM 82.4 °F 88.2 °F 73.4 °F 74% 29.97 in 10.0 mi Calm Calm - N/A   Clear
7:55 AM 84.2 °F 90.9 °F 73.4 °F 70% 29.97 in 10.0 mi Calm Calm - N/A   Clear
8:15 AM 86.0 °F 93.4 °F 73.4 °F 66% 29.98 in 10.0 mi Calm Calm - N/A   Partly Cloudy
8:35 AM 87.8 °F 95.6 °F 73.4 °F 62% 29.99 in 10.0 mi Calm Calm - N/A   Scattered Clouds
8:55 AM 86.0 °F 93.4 °F 73.4 °F 66% 30.00 in 10.0 mi Calm Calm - N/A   Mostly Cloudy
9:15 AM 87.8 °F 95.6 °F 73.4 °F 62% 30.00 in 10.0 mi North 3.5 mph - N/A   Partly Cloudy
9:35 AM 89.6 °F 98.2 °F 73.4 °F 59% 30.01 in 10.0 mi ENE 4.6 mph - N/A   Mostly Cloudy
9:55 AM 89.6 °F 98.2 °F 73.4 °F 59% 30.01 in 10.0 mi Calm Calm - N/A   Scattered Clouds
10:15 AM 89.6 °F 98.2 °F 73.4 °F 59% 30.01 in 10.0 mi East 4.6 mph - N/A   Mostly Cloudy
10:35 AM 89.6 °F 98.2 °F 73.4 °F 59% 30.01 in 10.0 mi East 4.6 mph - N/A   Scattered Clouds
10:55 AM 89.6 °F 98.2 °F 73.4 °F 59% 30.01 in 10.0 mi East 5.8 mph - N/A   Partly Cloudy
11:15 AM 91.4 °F 100.1 °F 73.4 °F 55% 30.00 in 10.0 mi NE 3.5 mph - N/A   Mostly Cloudy
11:35 AM 91.4 °F 100.1 °F 73.4 °F 55% 30.00 in 10.0 mi NE 4.6 mph - N/A   Mostly Cloudy
11:55 AM 91.4 °F 100.1 °F 73.4 °F 55% 30.00 in 10.0 mi South 5.8 mph - N/A   Mostly Cloudy
12:15 PM 91.4 °F 100.1 °F 73.4 °F 55% 30.00 in 10.0 mi SE 4.6 mph - N/A   Mostly Cloudy
12:35 PM 91.4 °F 98.4 °F 71.6 °F 52% 29.99 in 10.0 mi NNE 5.8 mph - N/A   Mostly Cloudy
12:55 PM 95.0 °F 103.2 °F 71.6 °F 47% 29.99 in 10.0 mi East 5.8 mph - N/A   Partly Cloudy
1:15 PM 95.0 °F 103.2 °F 71.6 °F 47% 30.00 in 10.0 mi NE 8.1 mph - N/A   Partly Cloudy
1:35 PM 93.2 °F 100.5 °F 71.6 °F 49% 29.99 in 10.0 mi NE 6.9 mph - N/A   Scattered Clouds
1:55 PM 93.2 °F 100.5 °F 71.6 °F 49% 29.99 in 10.0 mi East 3.5 mph - N/A   Unknown
2:15 PM 93.2 °F 100.5 °F 71.6 °F 49% 29.99 in 10.0 mi ENE 4.6 mph - N/A   Mostly Cloudy
2:35 PM 93.2 °F 98.8 °F 69.8 °F 46% 29.99 in 10.0 mi ESE 3.5 mph - N/A   Mostly Cloudy
2:55 PM 95.0 °F 101.3 °F 69.8 °F 44% 29.98 in 10.0 mi NE 6.9 mph - N/A   Partly Cloudy
3:15 PM 93.2 °F 98.8 °F 69.8 °F 46% 29.97 in 10.0 mi Calm Calm - N/A   Clear
3:35 PM 93.2 °F 98.8 °F 69.8 °F 46% 29.97 in 10.0 mi NE 8.1 mph - N/A   Clear
3:55 PM 95.0 °F 101.3 °F 69.8 °F 44% 29.96 in 10.0 mi East 5.8 mph - N/A   Clear
4:15 PM 95.0 °F 101.3 °F 69.8 °F 44% 29.96 in 10.0 mi Calm Calm - N/A   Scattered Clouds
4:35 PM 93.2 °F 98.8 °F 69.8 °F 46% 29.96 in 10.0 mi Calm Calm - N/A   Scattered Clouds
4:55 PM 93.2 °F 98.8 °F 69.8 °F 46% 29.96 in 10.0 mi Calm Calm - N/A   Partly Cloudy
5:15 PM 93.2 °F 98.8 °F 69.8 °F 46% 29.96 in 10.0 mi East 4.6 mph - N/A   Partly Cloudy
5:35 PM 93.2 °F 98.8 °F 69.8 °F 46% 29.96 in 10.0 mi Calm Calm - N/A   Scattered Clouds
5:55 PM 93.2 °F 98.8 °F 69.8 °F 46% 29.95 in 10.0 mi SSE 8.1 mph - N/A   Partly Cloudy
6:15 PM 93.2 °F 100.5 °F 71.6 °F 49% 29.95 in 10.0 mi SSE 8.1 mph - N/A   Partly Cloudy
6:35 PM 91.4 °F 98.4 °F 71.6 °F 52% 29.96 in 10.0 mi SSE 5.8 mph - N/A   Clear
6:55 PM 91.4 °F 100.1 °F 73.4 °F 55% 29.97 in 10.0 mi SSE 9.2 mph - N/A   Clear
7:15 PM 91.4 °F 100.1 °F 73.4 °F 55% 29.97 in 10.0 mi South 10.4 mph - N/A   Clear
7:35 PM 89.6 °F 98.2 °F 73.4 °F 59% 29.98 in 10.0 mi SSE 10.4 mph - N/A   Clear
7:55 PM 89.6 °F 98.2 °F 73.4 °F 59% 29.98 in 10.0 mi SSE 6.9 mph - N/A   Clear
8:15 PM 89.6 °F 98.2 °F 73.4 °F 59% 29.98 in 10.0 mi SSE 6.9 mph - N/A   Clear
8:35 PM 89.6 °F 98.2 °F 73.4 °F 59% 29.99 in 10.0 mi South 5.8 mph - N/A   Clear
8:55 PM 89.6 °F 98.2 °F 73.4 °F 59% 30.00 in 10.0 mi SSE 5.8 mph - N/A   Clear
9:15 PM 89.6 °F 96.2 °F 71.6 °F 55% 30.01 in 10.0 mi South 5.8 mph - N/A   Clear
9:35 PM 89.6 °F 98.2 °F 73.4 °F 59% 30.01 in 10.0 mi South 3.5 mph - N/A   Clear
9:55 PM 87.8 °F 95.6 °F 73.4 °F 62% 30.02 in 10.0 mi South 4.6 mph - N/A   Clear
10:15 PM 87.8 °F 95.6 °F 73.4 °F 62% 30.02 in 10.0 mi SSE 4.6 mph - N/A   Clear
10:35 PM 87.8 °F 95.6 °F 73.4 °F 62% 30.03 in 10.0 mi South 3.5 mph - N/A   Clear
10:55 PM 87.8 °F 95.6 °F 73.4 °F 62% 30.03 in 10.0 mi South 3.5 mph - N/A   Clear
11:15 PM 87.8 °F 97.6 °F 75.2 °F 66% 30.03 in 10.0 mi South 5.8 mph - N/A   Clear
11:35 PM 87.8 °F 95.6 °F 73.4 °F 62% 30.03 in 10.0 mi South 5.8 mph - N/A   Clear
11:55 PM 87.8 °F 95.6 °F 73.4 °F 62% 30.03 in 10.0 mi South 3.5 mph - N/A   Clear